This is the latest recevied weather packets stored in our database for station/object K8JMX-13. If no packets are shown the sender has not sent any weather packets the latest 1 day(s).
| Time | Temp. | Humidity | Pressure | Rain* | Wind** | Luminosity | Snow |
|---|---|---|---|---|---|---|---|
| 1777984637 | 16.11° C | 73% | 1006.9 hPa | 0 mm | 0.89 m/s, 244° | 65 W/m² | - |
| 1777984334 | 15.56° C | 73% | 1006.8 hPa | 0 mm | 0.89 m/s, 197° | 55 W/m² | - |
| 1777984030 | 15.56° C | 73% | 1006.7 hPa | 0 mm | 2.24 m/s, 227° | 44 W/m² | - |
| 1777983728 | 15.56° C | 73% | 1006.4 hPa | 0 mm | 0.89 m/s, 180° | 47 W/m² | - |
| 1777983424 | 15.56° C | 73% | 1006.4 hPa | 0 mm | 0.89 m/s, 180° | 43 W/m² | - |
| 1777983121 | 15.56° C | 73% | 1006.1 hPa | 0 mm | 1.34 m/s, 217° | 28 W/m² | - |
| 1777982818 | 15.56° C | 73% | 1006.2 hPa | 0 mm | 0 m/s | 27 W/m² | - |
| 1777982514 | 15.56° C | 73% | 1005.9 hPa | 0 mm | 1.34 m/s, 176° | 20 W/m² | - |
| 1777982212 | 15.56° C | 73% | 1005.9 hPa | 0 mm | 1.34 m/s, 212° | 11 W/m² | - |
| 1777981911 | 15.56° C | 73% | 1006.1 hPa | 0 mm | 0.89 m/s, 140° | 9 W/m² | - |
| 1777981608 | 15.56° C | 73% | 1005.9 hPa | 0 mm | 1.34 m/s, 228° | 11 W/m² | - |
| 1777981304 | 15.56° C | 72% | 1005.9 hPa | 0 mm | 1.79 m/s, 207° | 16 W/m² | - |
| 1777981000 | 15.56° C | 72% | 1006.1 hPa | 0 mm | 0.45 m/s, 182° | 15 W/m² | - |
| 1777980697 | 15.56° C | 72% | 1006.3 hPa | 0 mm | 1.34 m/s, 172° | 14 W/m² | - |
| 1777980393 | 15.56° C | 72% | 1006.1 hPa | 0 mm | 0.89 m/s, 190° | 10 W/m² | - |
| 1777980092 | 16.11° C | 71% | 1006.4 hPa | 0 mm | 0.45 m/s, 144° | 10 W/m² | - |
| 1777979791 | 16.11° C | 71% | 1006.3 hPa | 0 mm | 0.45 m/s, 316° | 8 W/m² | - |
| 1777979487 | 16.11° C | 70% | 1006.4 hPa | 0 mm | 0 m/s | 5 W/m² | - |
| 1777979184 | 16.11° C | 70% | 1006.5 hPa | 0 mm | 2.24 m/s, 273° | 4 W/m² | - |
| 1777978881 | 16.67° C | 69% | 1006.6 hPa | 0 mm | 0.89 m/s, 208° | 4 W/m² | - |
| 1777978578 | 16.67° C | 68% | 1006.5 hPa | 0 mm | 1.79 m/s, 216° | 2 W/m² | - |
| 1777978273 | 16.67° C | 67% | 1006.3 hPa | 0 mm | 0.89 m/s, 208° | 2 W/m² | - |
| 1777977970 | 16.67° C | 67% | 1006.1 hPa | 0 mm | 0.45 m/s, 197° | 2 W/m² | - |
| 1777977668 | 16.67° C | 66% | 1006.2 hPa | 0 mm | 1.79 m/s, 249° | 1 W/m² | - |
| 1777977364 | 16.67° C | 66% | 1006.2 hPa | 0 mm | 1.34 m/s, 271° | 1 W/m² | - |
* Rain latest hour (hover to see other rain measurements)
** Current wind speed in m/s (hover to see current wind gust speed)